Location: Carnetin
(48.9010°N, 2.7059°E)
Time: 05:01:31
(UTC+00:00)

USA 229 - Pass Details

Date: 05 June 2022
Orbit: 938 x 1274 km, 63.4° (Epoch: 24 May)

Event Time Altitude Azimuth Distance (km) Brightness Sun altitude
Rises 20:29:04 0° 316° (NW) 3,904 9.6 -5.9°
Reaches altitude 10° 20:31:45 10° 321° (NW) 2,994 7.9 -6.2°
Maximum altitude 20:38:47 53° 38° (NE) 1,433 4.5 -7.0°
Drops below altitude 10° 20:46:18 10° 114° (ESE) 3,202 5.6 -7.8°
Enters shadow 20:47:19 - 116° (ESE) 3,543 5.8 -8.0°
